Location: Campillo
(40.8621°N, 4.2488°W)
Time: 14:17:38
(UTC+00:00)

SJ-6B - Pass Details

Date: 30 September 2021
Orbit: 508 x 581 km, 97.6° (Epoch: 26 October)

Event Time Altitude Azimuth Distance (km) Brightness Sun altitude
Exits shadow 20:54:26 23° 295° (WNW) 1,238 5.2 -32.7°
Drops below altitude 10° 20:56:40 10° 323° (NW) 1,879 6.2 -33.1°
Sets 20:59:04 0° 336° (NNW) 2,770 7.1 -33.5°
